Key West, FL

3:29 PM EST on January 19, 2018 (GMT -0500)
Key West International

Weather History for KEYW - May, 2013

Change the Weather History Date:

Thursday, May 16, 2013

  Actual Average Record
Temperature  
Mean Temperature 81 °F 80 °F  
Max Temperature 84 °F 85 °F 90 °F (1967)
Min Temperature 77 °F 76 °F 64 °F (1917)
Degree Days  
Heating Degree Days 0 0  
Month to date heating degree days 0 0  
Since 1 July heating degree days 28 73  
Cooling Degree Days 16 15  
Month to date cooling degree days 224 230  
Year to date cooling degree days 1370 1184  
Growing Degree Days 30 (Base 50)    
Moisture  
Dew Point 67 °F    
Average Humidity 64    
Maximum Humidity 69    
Minimum Humidity 58    
Precipitation  
Precipitation 0.00 in 0.10 in 2.89 in (1923)
Month to date precipitation 4.55 1.15  
Year to date precipitation 10.50 8.78  
Snow  
Snow 0.00 in - - ()
Month to date snowfall 0.0  
Since 1 July snowfall 0.0  
Snow Depth 0.00 in    
Sea Level Pressure  
Sea Level Pressure 30.05 in    
Wind  
Wind Speed 13 mph (ESE)    
Max Wind Speed 21 mph    
Max Gust Speed 25 mph    
Visibility 10 miles    
Events      
T = Trace of Precipitation, MM = Missing Value Source: NWS Daily Summary

Daily Weather History Graph

Daily Weather History Graph

Search for Another Location

Airport or City:

Trip Planner

Search our weather history database for the weather conditions in past years. The results will help you decide how hot, cold, wet, or windy it might be!

Date:

Astronomy

May. 16, 2013 Rise Set
Actual Time 6:42 AM EDT 8:04 PM EDT
Civil Twilight 6:18 AM EDT 8:28 PM EDT
Nautical Twilight 5:48 AM EDT 8:58 PM EDT
Astronomical Twilight 5:18 AM EDT 9:28 PM EDT
Moon 12:03 PM EDT (5/16) 12:33 AM EDT (5/16)
Length of Visible Light 14h 10m
Length of Day
13h 21m
Waxing Crescent, 35% of the Moon is Illuminated
May 16
Waxing Crescent
May 18
First Quarter
May 25
Full
May 31
Last Quarter
Jun 8
New

Hourly Weather History & Observations

Time (EDT) Temp. Heat Index Dew Point Humidity Pressure Visibility Wind Dir Wind Speed Gust Speed Precip Events Conditions
12:53 AM 78.1 °F - 64.9 °F 64% 30.07 in 10.0 mi East 13.8 mph 19.6 mph N/A   Mostly Cloudy
1:53 AM 77.0 °F - 64.9 °F 66% 30.06 in 10.0 mi East 13.8 mph 19.6 mph N/A   Mostly Cloudy
2:53 AM 77.0 °F - 66.0 °F 69% 30.02 in 10.0 mi East 19.6 mph - N/A   Mostly Cloudy
3:53 AM 77.0 °F - 66.0 °F 69% 30.03 in 10.0 mi ESE 15.0 mph - N/A   Mostly Cloudy
4:53 AM 77.0 °F - 66.0 °F 69% 30.02 in 10.0 mi East 15.0 mph - N/A   Mostly Cloudy
5:53 AM 77.0 °F - 66.0 °F 69% 30.02 in 10.0 mi ESE 15.0 mph - N/A   Scattered Clouds
6:53 AM 77.0 °F - 66.0 °F 69% 30.04 in 10.0 mi East 13.8 mph - N/A   Clear
7:53 AM 78.1 °F - 66.0 °F 66% 30.06 in 10.0 mi ESE 12.7 mph - N/A   Partly Cloudy
8:53 AM 79.0 °F - 66.9 °F 66% 30.08 in 10.0 mi East 12.7 mph - N/A   Scattered Clouds
9:53 AM 79.0 °F - 66.9 °F 66% 30.08 in 10.0 mi ESE 10.4 mph - N/A   Mostly Cloudy
10:53 AM 82.0 °F 84.9 °F 68.0 °F 62% 30.09 in 10.0 mi ESE 12.7 mph - N/A   Partly Cloudy
11:53 AM 82.9 °F 85.8 °F 68.0 °F 60% 30.10 in 10.0 mi East 13.8 mph - N/A   Partly Cloudy
12:53 PM 82.9 °F 85.8 °F 68.0 °F 60% 30.08 in 10.0 mi East 13.8 mph - N/A   Clear
1:53 PM 82.9 °F 85.8 °F 68.0 °F 60% 30.08 in 10.0 mi East 15.0 mph - N/A   Clear
2:53 PM 82.9 °F 85.4 °F 66.9 °F 58% 30.07 in 10.0 mi East 15.0 mph - N/A   Mostly Cloudy
3:53 PM 82.0 °F 84.5 °F 66.9 °F 60% 30.06 in 10.0 mi ESE 11.5 mph - N/A   Overcast
4:53 PM 82.0 °F 84.5 °F 66.9 °F 60% 30.04 in 10.0 mi East 15.0 mph - N/A   Mostly Cloudy
5:53 PM 80.6 °F 82.7 °F 66.2 °F 61% 30.03 in 10.0 mi East 12.7 mph - N/A   Clear
6:53 PM 81.0 °F 83.3 °F 66.9 °F 62% 30.01 in 10.0 mi East 10.4 mph - N/A   Clear
7:53 PM 79.0 °F - 66.0 °F 64% 30.01 in 10.0 mi East 9.2 mph - N/A   Clear
8:53 PM 78.1 °F - 66.9 °F 68% 30.02 in 10.0 mi East 12.7 mph - N/A   Clear
9:53 PM 78.1 °F - 66.0 °F 66% 30.05 in 10.0 mi East 13.8 mph - N/A   Clear
10:53 PM 78.1 °F - 66.9 °F 68% 30.06 in 10.0 mi ESE 13.8 mph - N/A   Scattered Clouds
11:01 PM 78.8 °F - 66.2 °F 65% 30.06 in 10.0 mi ESE 12.7 mph - N/A   Mostly Cloudy
11:12 PM 78.8 °F - 66.2 °F 65% 30.06 in 10.0 mi ESE 15.0 mph - N/A   Mostly Cloudy
11:53 PM 78.1 °F - 66.9 °F 68% 30.06 in 10.0 mi ESE 11.5 mph - N/A   Partly Cloudy